(295538) = 2008 RO141

Discovered at Mount Lemmon on 2008-09-06 by Mt. Lemmon Survey.

Orbit

Orbit type: Main Belt

Note: WebGL enabled browser required.

epoch2023-09-13.0
epoch JD2460200.5
perihelion date2022-11-30.26475
perihelion JD2459913.76475
argument of perihelion (°)21.00203
ascending node (°)346.43884
inclination (°)5.68568
eccentricity0.0858713
perihelion distance (AU)2.5572205
Tisserand w.r.t. Jupiter3.3
ΔV w.r.t. Earth (km/sec)10.2
semimajor axis (AU)2.7974404
mean anomaly (°)60.40094
mean daily motion (°/day)0.21065050
aphelion distance (AU)3.038
period (years)4.68
P-vector [x]0.99116560
P-vector [y]0.10312007
P-vector [z]0.08340871
Q-vector [x]-0.13057988
Q-vector [y]0.86886938
Q-vector [z]0.47750905
absolute magnitude16.75
phase slope0.15
uncertainty0
referenceMPEC 2023-Y46
observations used301
oppositions15
arc length (days)10660
first opposition used1994
last opposition used2023
residual rms (arc-secs)0.72
perturbers coarse indicatorM-v
perturbers precise indicator003Ek
first observation date used1994-10-09.0
last observation date used2023-12-16.0
computer nameMPCLINUX
JD of orbit computation2456639.529041
perihelion JD uncertainty (days)1.9190E-04
argument of perihelion uncertainty (°)9.9184E-05
ascending node uncertainty (°)8.8022E-05
inclination uncertainty (°)1.3190E-05
eccentricity uncertainty 1.7102E-07
perihelion distance uncertainty (AU)4.6990E-07
Minimum Orbit Intersection Distances (in AU)
for orbit epoch: 2460200.5, reference: E2023-Y46
Mercury2.19432
Venus1.83506
Earth1.55559
Mars1.14842
Jupiter2.39393
Saturn6.25016
Uranus15.4242
Neptune27.2715

Observations

304 total observations over interval: 1994 10 09.13664 – 2023 12 16.456347
These data are available for download (format description).

Date (UT) J2000 RA J2000 Dec Magn Location Ref
1994 10 09.13664 23 33 21.57 -00 16 55.5   691 – Steward Observatory, Kitt Peak-Spacewatch MPS 313455
1994 10 09.16137 23 33 20.58 -00 16 59.0 20.3 V 691 – Steward Observatory, Kitt Peak-Spacewatch MPS 313455
1994 10 09.18591 23 33 19.50 -00 17 03.2   691 – Steward Observatory, Kitt Peak-Spacewatch MPS 313455
2001 01 20.36977 09 43 09.94 +18 24 30.5 22.0 V 691 – Steward Observatory, Kitt Peak-Spacewatch MPS 313455
2001 01 20.39166 09 43 08.87 +18 24 34.4 21.8 V 691 – Steward Observatory, Kitt Peak-Spacewatch MPS 313455
2001 01 20.41340 09 43 07.80 +18 24 38.9 21.5 V 691 – Steward Observatory, Kitt Peak-Spacewatch MPS 313455
2004 12 02.27411 04 45 28.11 +31 21 24.8 20.3   644 – Palomar Mountain/NEAT MPS 313455
2004 12 02.33709 04 45 23.91 +31 21 19.2 20.0   644 – Palomar Mountain/NEAT MPS 313455
2004 12 02.40294 04 45 19.68 +31 21 13.4 20.4   644 – Palomar Mountain/NEAT MPS 313455
2006 02 01.43191 11 26 13.23 +04 51 41.2 21.3 V G96 – Mt. Lemmon Survey MPS 313455
2006 02 01.43855 11 26 12.94 +04 51 41.6 21.3 V G96 – Mt. Lemmon Survey MPS 313455
2006 02 01.44519 11 26 12.76 +04 51 42.4 22.6 V G96 – Mt. Lemmon Survey MPS 313455
2006 02 01.45186 11 26 12.58 +04 51 42.8 22.0 V G96 – Mt. Lemmon Survey MPS 313455
2006 02 07.45043 11 23 01.71 +05 03 47.6   691 – Steward Observatory, Kitt Peak-Spacewatch MPS 313455
2006 02 07.46778 11 23 01.04 +05 03 49.8   691 – Steward Observatory, Kitt Peak-Spacewatch MPS 313455
2006 02 07.48512 11 23 00.43 +05 03 52.3   691 – Steward Observatory, Kitt Peak-Spacewatch MPS 313455
2006 03 23.27782 10 48 14.68 +07 28 14.0 22.4 V G96 – Mt. Lemmon Survey MPS 313455
2006 03 23.28535 10 48 14.36 +07 28 16.1 21.7 V G96 – Mt. Lemmon Survey MPS 313455
2006 03 23.29278 10 48 14.00 +07 28 16.5 21.1 V G96 – Mt. Lemmon Survey MPS 313455
2006 03 23.30021 10 48 13.64 +07 28 18.9 20.9 V G96 – Mt. Lemmon Survey MPS 313455
2008 09 06.30061 23 40 30.64 -01 23 14.6 19.9 V G96 – Mt. Lemmon Survey MPS 311899
2008 09 06.30647 23 40 30.32 -01 23 15.6 19.9 V G96 – Mt. Lemmon Survey MPS 311899
2008 09 06.31219 23 40 30.03 -01 23 16.3 20.1 V G96 – Mt. Lemmon Survey MPS 311899
2008 09 06.31786 23 40 29.74 -01 23 17.3 19.9 V G96 – Mt. Lemmon Survey MPS 311899
2008 09 22.23015 23 26 49.31 -02 09 50.3 19.5   704 – Lincoln Laboratory ETS, New Mexico MPS 311899
2008 09 22.25427 23 26 48.03 -02 09 54.0 20.6   704 – Lincoln Laboratory ETS, New Mexico MPS 311899
2008 09 22.26642 23 26 47.33 -02 09 56.3 20.2   704 – Lincoln Laboratory ETS, New Mexico MPS 311899
2008 09 22.27848 23 26 46.75 -02 09 59.1 20.4   704 – Lincoln Laboratory ETS, New Mexico MPS 311899
2008 09 24.23940 23 25 08.15 -02 15 40.8 20.5   704 – Lincoln Laboratory ETS, New Mexico MPS 311899
2008 09 24.25149 23 25 07.58 -02 15 42.8 20.1   704 – Lincoln Laboratory ETS, New Mexico MPS 311899
2008 09 24.26358 23 25 07.00 -02 15 44.8 20.4   704 – Lincoln Laboratory ETS, New Mexico MPS 311899
2008 09 24.27566 23 25 06.35 -02 15 46.7 20.4   704 – Lincoln Laboratory ETS, New Mexico MPS 311899
2008 10 08.18259 23 14 54.85 -02 49 35.9 20.4 V G96 – Mt. Lemmon Survey MPS 311899
2008 10 08.18736 23 14 54.63 -02 49 36.5 20.2 V G96 – Mt. Lemmon Survey MPS 311899
2008 10 08.19222 23 14 54.45 -02 49 36.6 20.5 V G96 – Mt. Lemmon Survey MPS 311899
2008 10 08.19694 23 14 54.31 -02 49 37.5 20.7 V G96 – Mt. Lemmon Survey MPS 311899
2008 11 20.12237 23 11 34.69 -02 13 11.3 21.4 V G96 – Mt. Lemmon Survey MPS 313455
2008 11 20.12793 23 11 34.87 -02 13 09.9 21.1 V G96 – Mt. Lemmon Survey MPS 313455
2008 11 20.13347 23 11 34.98 -02 13 09.1 21.4 V G96 – Mt. Lemmon Survey MPS 313455
2008 11 20.13910 23 11 35.16 -02 13 07.7 22.5 V G96 – Mt. Lemmon Survey MPS 313455
2011 03 30.24118 12 30 55.98 -06 57 12.7 20.8 V G96 – Mt. Lemmon Survey MPS 375611
2011 03 30.25015 12 30 55.51 -06 57 10.7 20.5 V G96 – Mt. Lemmon Survey MPS 375611
2011 03 30.25542 12 30 55.22 -06 57 09.3 20.7 V G96 – Mt. Lemmon Survey MPS 375611
2011 03 30.26066 12 30 54.93 -06 57 08.6 20.6 V G96 – Mt. Lemmon Survey MPS 375611
2011 03 31.37116 12 29 58.124 -06 52 52.10 21.1 w F51 – Pan-STARRS 1, Haleakala MPS 377221
2011 03 31.38671 12 29 57.303 -06 52 48.50 21.2 w F51 – Pan-STARRS 1, Haleakala MPS 377221
2011 03 31.40327 12 29 56.431 -06 52 44.69 21.1 w F51 – Pan-STARRS 1, Haleakala MPS 377221
2011 03 31.41878 12 29 55.608 -06 52 41.11 21.1 w F51 – Pan-STARRS 1, Haleakala MPS 377221
2013 09 06.02560 02 15 50.13 +18 08 04.4 21.1 R C10 – Maisoncelles MPS 476053
2013 09 06.09614 02 15 49.79 +18 08 18.3 20.8 R C10 – Maisoncelles MPS 476053
2013 10 01.27535 02 06 31.11 +18 44 42.7 20.4 V 691 – Steward Observatory, Kitt Peak-Spacewatch MPS 479913
2013 10 01.29702 02 06 30.17 +18 44 42.3 20.3 V 691 – Steward Observatory, Kitt Peak-Spacewatch MPS 479913
2013 10 01.31523 02 06 29.39 +18 44 42.1 20.3 V 691 – Steward Observatory, Kitt Peak-Spacewatch MPS 479913
2013 10 03.30128 02 05 05.34 +18 43 36.0 20.2 r I41 – Palomar Mountain--ZTF MPS 482173
2013 10 03.33931 02 05 03.62 +18 43 34.6 20.2 r I41 – Palomar Mountain--ZTF MPS 482173
2013 10 04.38027 02 04 17.51 +18 42 45.7 20.3 r I41 – Palomar Mountain--ZTF MPS 482173
2013 10 04.41352 02 04 15.94 +18 42 43.9 20.4 r I41 – Palomar Mountain--ZTF MPS 482173
2013 10 05.38083 02 03 32.315 +18 41 50.12 20.2 w F51 – Pan-STARRS 1, Haleakala MPS 482173
2013 10 05.39441 02 03 31.661 +18 41 49.42 20.2 w F51 – Pan-STARRS 1, Haleakala MPS 482173
2013 10 05.40809 02 03 31.006 +18 41 48.64 20.2 w F51 – Pan-STARRS 1, Haleakala MPS 482173
2013 10 05.42179 02 03 30.346 +18 41 47.81 20.2 w F51 – Pan-STARRS 1, Haleakala MPS 482173
2013 10 08.31170 02 01 13.18 +18 38 13.7 20.1 r I41 – Palomar Mountain--ZTF MPS 482173
2013 10 08.34475 02 01 11.50 +18 38 11.0 20.1 r I41 – Palomar Mountain--ZTF MPS 482173
2013 10 08.37851 02 01 09.78 +18 38 08.2 20.1 r I41 – Palomar Mountain--ZTF MPS 482173
2013 10 12.69193 01 57 31.16 +18 30 35.8 20.4 R D29 – Purple Mountain Observatory, XuYi Station MPS 482173
2013 10 12.71182 01 57 30.18 +18 30 32.2 20.8 R D29 – Purple Mountain Observatory, XuYi Station MPS 482173
2013 10 12.73170 01 57 29.04 +18 30 31.6 20.7 R D29 – Purple Mountain Observatory, XuYi Station MPS 482173
2013 10 13.20584 01 57 04.45 +18 29 31.9 20.2 V 691 – Steward Observatory, Kitt Peak-Spacewatch MPS 482173
2013 10 13.22355 01 57 03.47 +18 29 29.5 20.2 V 691 – Steward Observatory, Kitt Peak-Spacewatch MPS 482173
2013 10 13.24124 01 57 02.53 +18 29 27.4 20.2 V 691 – Steward Observatory, Kitt Peak-Spacewatch MPS 482173
2013 10 24.47606 01 46 49.167 +17 58 33.52 19.6 i F51 – Pan-STARRS 1, Haleakala MPS 483492
2013 10 24.48862 01 46 48.453 +17 58 30.83 19.6 i F51 – Pan-STARRS 1, Haleakala MPS 483492
2013 10 25.07976 01 46 16.40 +17 56 31.7 19.6 R H15 – ISON-NM Observatory, Mayhill MPS 483492
2013 10 25.08935 01 46 15.86 +17 56 29.2 19.7 R H15 – ISON-NM Observatory, Mayhill MPS 483492
2013 10 25.09894 01 46 15.28 +17 56 27.8 19.5 R H15 – ISON-NM Observatory, Mayhill MPS 483492
2013 10 25.10853 01 46 14.79 +17 56 24.7 19.5 R H15 – ISON-NM Observatory, Mayhill MPS 483492
2013 10 25.25645 01 46 06.42 +17 55 56.4 19.4 V G96 – Mt. Lemmon Survey MPS 483492
2013 10 25.26188 01 46 06.09 +17 55 55.2 19.7 V G96 – Mt. Lemmon Survey MPS 483492
2013 10 25.26734 01 46 05.78 +17 55 54.1 19.6 V G96 – Mt. Lemmon Survey MPS 483492
2013 10 25.27278 01 46 05.47 +17 55 53.0 19.6 V G96 – Mt. Lemmon Survey MPS 483492
2013 10 30.26035 01 41 35.37 +17 38 17.3 20.0 V 703 – Catalina Sky Survey MPS 485103
2013 10 30.26552 01 41 35.03 +17 38 16.4 20.0 V 703 – Catalina Sky Survey MPS 485103
2013 10 30.27068 01 41 34.64 +17 38 14.1 20.0 V 703 – Catalina Sky Survey MPS 485103
2013 10 30.27583 01 41 34.48 +17 38 13.3 19.9 V 703 – Catalina Sky Survey MPS 485103
2013 11 05.65383 01 36 10.52 +17 14 15.3 20.0 R D29 – Purple Mountain Observatory, XuYi Station MPS 487031
2013 11 05.67372 01 36 09.51 +17 14 10.7 21.0 R D29 – Purple Mountain Observatory, XuYi Station MPS 487031
2013 11 08.27331 01 34 08.02 +17 04 17.0 20.0 V 703 – Catalina Sky Survey MPS 487031
2013 11 08.28191 01 34 07.62 +17 04 13.5 19.5 V 703 – Catalina Sky Survey MPS 487031
2013 11 08.29052 01 34 07.23 +17 04 12.6 20.5 V 703 – Catalina Sky Survey MPS 487031
